"Sample Date","Sample Time","Sensor Name","Sample Value","Units","Flow Rate","Sample Interval","Sample Volume","Laser Status","Number Channels","Micron Size 0","Counts/Channel 0","Micron Size 1","Counts/Channel 1","Micron Size 2","Counts/Channel 2","Micron Size 3","Counts/Channel 3","Micron Size 4","Counts/Channel 4","Micron Size 5","Counts/Channel 5","Micron Size 6","Counts/Channel 6","Micron Size 7","Counts/Channel 7","Micron Size 8","Counts/Channel 8","Micron Size 9","Counts/Channel 9","Micron Size 10","Counts/Channel 10","Micron Size 11","Counts/Channel 11","Micron Size 12","Counts/Channel 12","Micron Size 13","Counts/Channel 13","Micron Size 14","Counts/Channel 14","Micron Size 15","Counts/Channel 15","Micron Size 16","Counts/Channel 16","Micron Size 17","Counts/Channel 17","Micron Size 18","Counts/Channel 18","Micron Size 19","Counts/Channel 19","Micron Size 20","Counts/Channel 20","Micron Size 21","Counts/Channel 21","Micron Size 22","Counts/Channel 22","Micron Size 23","Counts/Channel 23","Micron Size 24","Counts/Channel 24","Micron Size 25","Counts/Channel 25","Micron Size 26","Counts/Channel 26","Micron Size 27","Counts/Channel 27","Micron Size 28","Counts/Channel 28","Micron Size 29","Counts/Channel 29","Micron Size 30","Counts/Channel 30","Micron Size 31","Counts/Channel 31"
"07/03/06","03:00:03","AMMA06",84453.000,"cc",28307.367,6.00,2830.737,1,6,0.100,46163.000,0.200,29833.000,0.300,5856.000,0.500,1586.000,1.000,1015.000,5.000,0
"07/03/06","03:00:09","AMMA06",84630.000,"cc",28297.625,6.00,2829.763,1,6,0.100,46533.000,0.200,29701.000,0.300,5814.000,0.500,1567.000,1.000,1015.000,5.000,0
"07/03/06","03:00:15","AMMA06",84132.000,"cc",28327.225,6.00,2832.723,1,6,0.100,46297.000,0.200,29229.000,0.300,5823.000,0.500,1713.000,1.000,1070.000,5.000,0
"07/03/06","03:00:21","AMMA06",85043.000,"cc",28294.463,6.00,2829.447,1,6,0.100,46793.000,0.200,29768.000,0.300,5833.000,0.500,1617.000,1.000,1032.000,5.000,0
"07/03/06","03:00:27","AMMA06",85348.000,"cc",28303.363,6.00,2830.336,1,6,0.100,46953.000,0.200,29731.000,0.300,5964.000,0.500,1690.000,1.000,1009.000,5.000,1.000
"07/03/06","03:00:33","AMMA06",85152.000,"cc",28310.000,6.00,2831.000,1,6,0.100,47186.000,0.200,29590.000,0.300,5779.000,0.500,1586.000,1.000,1011.000,5.000,0
"07/03/06","03:00:39","AMMA06",84703.000,"cc",28314.410,6.00,2831.441,1,6,0.100,46829.000,0.200,29462.000,0.300,5748.000,0.500,1611.000,1.000,1053.000,5.000,0
"07/03/06","03:00:45","AMMA06",85100.000,"cc",28332.762,6.00,2833.276,1,6,0.100,47001.000,0.200,29581.000,0.300,5830.000,0.500,1670.000,1.000,1018.000,5.000,0
"07/03/06","03:00:51","AMMA06",84935.000,"cc",28307.891,6.00,2830.789,1,6,0.100,47164.000,0.200,29520.000,0.300,5675.000,0.500,1586.000,1.000,990.000,5.000,0
"07/03/06","03:00:57","AMMA06",85134.000,"cc",28335.477,6.00,2833.548,1,6,0.100,47209.000,0.200,29421.000,0.300,5821.000,0.500,1641.000,1.000,1042.000,5.000,0
"07/03/06","03:01:03","AMMA06",85516.000,"cc",28274.779,6.00,2827.478,1,6,0.100,47382.000,0.200,29803.000,0.300,5765.000,0.500,1576.000,1.000,989.000,5.000,1.000
"07/03/06","03:01:09","AMMA06",84985.000,"cc",28310.473,6.00,2831.047,1,6,0.100,47071.000,0.200,29527.000,0.300,5698.000,0.500,1642.000,1.000,1047.000,5.000,0
"07/03/06","03:01:15","AMMA06",85293.000,"cc",28356.787,6.00,2835.679,1,6,0.100,47112.000,0.200,29806.000,0.300,5688.000,0.500,1573.000,1.000,1113.000,5.000,1.000
"07/03/06","03:01:21","AMMA06",84967.000,"cc",28312.914,6.00,2831.292,1,6,0.100,47140.000,0.200,29456.000,0.300,5755.000,0.500,1610.000,1.000,1006.000,5.000,0
"07/03/06","03:01:27","AMMA06",84547.000,"cc",28302.037,6.00,2830.204,1,6,0.100,46699.000,0.200,29314.000,0.300,5806.000,0.500,1663.000,1.000,1065.000,5.000,0
"07/03/06","03:01:33","AMMA06",84834.000,"cc",28334.506,6.00,2833.451,1,6,0.100,47008.000,0.200,29361.000,0.300,5696.000,0.500,1677.000,1.000,1092.000,5.000,0
"07/03/06","03:01:39","AMMA06",84493.000,"cc",28332.977,6.00,2833.298,1,6,0.100,46705.000,0.200,29546.000,0.300,5640.000,0.500,1589.000,1.000,1012.000,5.000,1.000
"07/03/06","03:01:45","AMMA06",84724.000,"cc",28283.201,6.00,2828.320,1,6,0.100,47053.000,0.200,29447.000,0.300,5613.000,0.500,1567.000,1.000,1044.000,5.000,0
"07/03/06","03:01:51","AMMA06",84291.000,"cc",28323.414,6.00,2832.342,1,6,0.100,46759.000,0.200,29130.000,0.300,5738.000,0.500,1635.000,1.000,1029.000,5.000,0
"07/03/06","03:01:57","AMMA06",84914.000,"cc",28327.154,6.00,2832.716,1,6,0.100,47048.000,0.200,29509.000,0.300,5661.000,0.500,1651.000,1.000,1045.000,5.000,0
"07/03/06","03:02:03","AMMA06",84630.000,"cc",28317.832,6.00,2831.783,1,6,0.100,47305.000,0.200,29192.000,0.300,5514.000,0.500,1573.000,1.000,1046.000,5.000,0
"07/03/06","03:02:09","AMMA06",84564.000,"cc",28300.727,6.00,2830.073,1,6,0.100,47163.000,0.200,29091.000,0.300,5711.000,0.500,1558.000,1.000,1040.000,5.000,1.000
"07/03/06","03:02:15","AMMA06",84763.000,"cc",28292.174,6.00,2829.218,1,6,0.100,47204.000,0.200,29287.000,0.300,5623.000,0.500,1609.000,1.000,1039.000,5.000,1.000
"07/03/06","03:02:21","AMMA06",84986.000,"cc",28371.900,6.00,2837.190,1,6,0.100,47341.000,0.200,29170.000,0.300,5793.000,0.500,1659.000,1.000,1023.000,5.000,0
"07/03/06","03:02:27","AMMA06",84448.000,"cc",28340.688,6.00,2834.069,1,6,0.100,46653.000,0.200,29498.000,0.300,5647.000,0.500,1621.000,1.000,1028.000,5.000,1.000
"07/03/06","03:02:33","AMMA06",84089.000,"cc",28354.486,6.00,2835.449,1,6,0.100,46526.000,0.200,29180.000,0.300,5699.000,0.500,1599.000,1.000,1085.000,5.000,0
"07/03/06","03:02:39","AMMA06",84212.000,"cc",28282.252,6.00,2828.225,1,6,0.100,46491.000,0.200,29481.000,0.300,5643.000,0.500,1622.000,1.000,975.000,5.000,0
"07/03/06","03:02:45","AMMA06",84984.000,"cc",28270.818,6.00,2827.082,1,6,0.100,47243.000,0.200,29259.000,0.300,5776.000,0.500,1644.000,1.000,1062.000,5.000,0
"07/03/06","03:02:51","AMMA06",84696.000,"cc",28335.518,6.00,2833.552,1,6,0.100,47104.000,0.200,29394.000,0.300,5551.000,0.500,1598.000,1.000,1049.000,5.000,0
"07/03/06","03:02:57","AMMA06",84391.000,"cc",28287.031,6.00,2828.703,1,6,0.100,46745.000,0.200,29191.000,0.300,5707.000,0.500,1683.000,1.000,1065.000,5.000,0
"07/03/06","03:03:03","AMMA06",84441.000,"cc",28329.100,6.00,2832.910,1,6,0.100,46855.000,0.200,29332.000,0.300,5620.000,0.500,1588.000,1.000,1046.000,5.000,0
"07/03/06","03:03:09","AMMA06",85188.000,"cc",28324.027,6.00,2832.403,1,6,0.100,47066.000,0.200,29685.000,0.300,5794.000,0.500,1632.000,1.000,1010.000,5.000,1.000
"07/03/06","03:03:15","AMMA06",85455.000,"cc",28305.215,6.00,2830.522,1,6,0.100,47461.000,0.200,29627.000,0.300,5732.000,0.500,1581.000,1.000,1054.000,5.000,0
"07/03/06","03:03:21","AMMA06",85670.000,"cc",28295.291,6.00,2829.529,1,6,0.100,47244.000,0.200,29844.000,0.300,5845.000,0.500,1687.000,1.000,1050.000,5.000,0
"07/03/06","03:03:27","AMMA06",85692.000,"cc",28319.965,6.00,2831.997,1,6,0.100,47489.000,0.200,29746.000,0.300,5702.000,0.500,1694.000,1.000,1061.000,5.000,0
"07/03/06","03:03:33","AMMA06",85399.000,"cc",28394.273,6.00,2839.428,1,6,0.100,47512.000,0.200,29527.000,0.300,5759.000,0.500,1544.000,1.000,1057.000,5.000,0
"07/03/06","03:03:39","AMMA06",85843.000,"cc",28274.510,6.00,2827.451,1,6,0.100,47757.000,0.200,29626.000,0.300,5864.000,0.500,1558.000,1.000,1036.000,5.000,2.000
"07/03/06","03:03:45","AMMA06",85765.000,"cc",28311.471,6.00,2831.147,1,6,0.100,47514.000,0.200,29694.000,0.300,5890.000,0.500,1669.000,1.000,997.000,5.000,1.000
"07/03/06","03:03:51","AMMA06",86782.000,"cc",28315.104,6.00,2831.511,1,6,0.100,47907.000,0.200,30332.000,0.300,5927.000,0.500,1600.000,1.000,1015.000,5.000,1.000
"07/03/06","03:03:57","AMMA06",86160.000,"cc",28301.539,6.00,2830.154,1,6,0.100,47680.000,0.200,29831.000,0.300,5970.000,0.500,1602.000,1.000,1077.000,5.000,0
"07/03/06","03:04:03","AMMA06",86601.000,"cc",28330.176,6.00,2833.018,1,6,0.100,47992.000,0.200,29903.000,0.300,6031.000,0.500,1605.000,1.000,1069.000,5.000,1.000
"07/03/06","03:04:09","AMMA06",85644.000,"cc",28343.328,6.00,2834.333,1,6,0.100,47031.000,0.200,29900.000,0.300,6038.000,0.500,1602.000,1.000,1073.000,5.000,0
"07/03/06","03:04:15","AMMA06",86759.000,"cc",28291.172,6.00,2829.117,1,6,0.100,47605.000,0.200,30321.000,0.300,6166.000,0.500,1560.000,1.000,1107.000,5.000,0
"07/03/06","03:04:21","AMMA06",86060.000,"cc",28313.797,6.00,2831.380,1,6,0.100,47263.000,0.200,30132.000,0.300,5960.000,0.500,1633.000,1.000,1072.000,5.000,0
"07/03/06","03:04:27","AMMA06",86878.000,"cc",28273.871,6.00,2827.387,1,6,0.100,47855.000,0.200,30435.000,0.300,5876.000,0.500,1639.000,1.000,1073.000,5.000,0
"07/03/06","03:04:33","AMMA06",87017.000,"cc",28300.994,6.00,2830.100,1,6,0.100,48228.000,0.200,30206.000,0.300,5974.000,0.500,1582.000,1.000,1027.000,5.000,0
"07/03/06","03:04:39","AMMA06",87139.000,"cc",28349.453,6.00,2834.946,1,6,0.100,47938.000,0.200,30581.000,0.300,6002.000,0.500,1566.000,1.000,1052.000,5.000,0
"07/03/06","03:04:45","AMMA06",87003.000,"cc",28294.193,6.00,2829.419,1,6,0.100,47804.000,0.200,30341.000,0.300,6221.000,0.500,1593.000,1.000,1042.000,5.000,2.000
"07/03/06","03:04:51","AMMA06",86936.000,"cc",28294.363,6.00,2829.437,1,6,0.100,47671.000,0.200,30554.000,0.300,6147.000,0.500,1536.000,1.000,1028.000,5.000,0
"07/03/06","03:04:57","AMMA06",86698.000,"cc",28335.906,6.00,2833.591,1,6,0.100,47670.000,0.200,30232.000,0.300,6108.000,0.500,1569.000,1.000,1119.000,5.000,0
"07/03/06","03:05:03","AMMA06",87378.000,"cc",28310.947,6.00,2831.095,1,6,0.100,48323.000,0.200,30404.000,0.300,6050.000,0.500,1544.000,1.000,1056.000,5.000,1.000
"07/03/06","03:05:09","AMMA06",86852.000,"cc",28350.096,6.00,2835.010,1,6,0.100,47816.000,0.200,30413.000,0.300,6014.000,0.500,1579.000,1.000,1030.000,5.000,0
"07/03/06","03:05:15","AMMA06",86922.000,"cc",28348.033,6.00,2834.804,1,6,0.100,47927.000,0.200,30158.000,0.300,6154.000,0.500,1592.000,1.000,1091.000,5.000,0
"07/03/06","03:05:21","AMMA06",87308.000,"cc",28326.361,6.00,2832.636,1,6,0.100,48343.000,0.200,30371.000,0.300,6064.000,0.500,1515.000,1.000,1015.000,5.000,0
"07/03/06","03:05:27","AMMA06",86749.000,"cc",28317.211,6.00,2831.721,1,6,0.100,47505.000,0.200,30241.000,0.300,6353.000,0.500,1542.000,1.000,1108.000,5.000,0
"07/03/06","03:05:33","AMMA06",87011.000,"cc",28325.838,6.00,2832.584,1,6,0.100,47942.000,0.200,30192.000,0.300,6199.000,0.500,1623.000,1.000,1055.000,5.000,0
"07/03/06","03:05:39","AMMA06",87782.000,"cc",28318.768,6.00,2831.877,1,6,0.100,48446.000,0.200,30576.000,0.300,6098.000,0.500,1582.000,1.000,1080.000,5.000,0
"07/03/06","03:05:45","AMMA06",86987.000,"cc",28314.705,6.00,2831.471,1,6,0.100,48153.000,0.200,30096.000,0.300,6034.000,0.500,1636.000,1.000,1068.000,5.000,0
"07/03/06","03:05:51","AMMA06",87431.000,"cc",28335.518,6.00,2833.552,1,6,0.100,48314.000,0.200,30355.000,0.300,6137.000,0.500,1606.000,1.000,1019.000,5.000,0
"07/03/06","03:05:57","AMMA06",87113.000,"cc",28343.979,6.00,2834.398,1,6,0.100,47824.000,0.200,30553.000,0.300,6142.000,0.500,1562.000,1.000,1031.000,5.000,1.000
"07/03/06","03:06:03","AMMA06",86534.000,"cc",28350.850,6.00,2835.085,1,6,0.100,47343.000,0.200,30405.000,0.300,6146.000,0.500,1581.000,1.000,1059.000,5.000,0
"07/03/06","03:06:09","AMMA06",86927.000,"cc",28277.940,6.00,2827.794,1,6,0.100,47971.000,0.200,30194.000,0.300,6189.000,0.500,1599.000,1.000,974.000,5.000,0
"07/03/06","03:06:15","AMMA06",87250.000,"cc",28297.252,6.00,2829.725,1,6,0.100,48107.000,0.200,30399.000,0.300,6117.000,0.500,1565.000,1.000,1060.000,5.000,2.000
"07/03/06","03:06:21","AMMA06",87330.000,"cc",28281.395,6.00,2828.140,1,6,0.100,47932.000,0.200,30543.000,0.300,6160.000,0.500,1635.000,1.000,1059.000,5.000,1.000
"07/03/06","03:06:27","AMMA06",86946.000,"cc",28332.820,6.00,2833.282,1,6,0.100,47871.000,0.200,30366.000,0.300,6063.000,0.500,1603.000,1.000,1043.000,5.000,0
"07/03/06","03:06:33","AMMA06",87565.000,"cc",28344.740,6.00,2834.474,1,6,0.100,48383.000,0.200,30421.000,0.300,6132.000,0.500,1595.000,1.000,1034.000,5.000,0
"07/03/06","03:06:39","AMMA06",86840.000,"cc",28349.301,6.00,2834.930,1,6,0.100,47882.000,0.200,30278.000,0.300,6094.000,0.500,1526.000,1.000,1059.000,5.000,1.000
"07/03/06","03:06:45","AMMA06",87065.000,"cc",28255.240,6.00,2825.524,1,6,0.100,47736.000,0.200,30455.000,0.300,6115.000,0.500,1658.000,1.000,1101.000,5.000,0
"07/03/06","03:06:51","AMMA06",86592.000,"cc",28313.356,6.00,2831.336,1,6,0.100,47555.000,0.200,30366.000,0.300,6149.000,0.500,1432.000,1.000,1089.000,5.000,1.000
"07/03/06","03:06:57","AMMA06",87117.000,"cc",28303.551,6.00,2830.355,1,6,0.100,48033.000,0.200,30318.000,0.300,6194.000,0.500,1494.000,1.000,1078.000,5.000,0
"07/03/06","03:07:03","AMMA06",87020.000,"cc",28312.162,6.00,2831.216,1,6,0.100,47621.000,0.200,30639.000,0.300,6069.000,0.500,1666.000,1.000,1025.000,5.000,0
"07/03/06","03:07:09","AMMA06",87022.000,"cc",28334.598,6.00,2833.460,1,6,0.100,47917.000,0.200,30333.000,0.300,6139.000,0.500,1587.000,1.000,1045.000,5.000,1.000
"07/03/06","03:07:15","AMMA06",86842.000,"cc",28332.594,6.00,2833.260,1,6,0.100,47831.000,0.200,30219.000,0.300,6027.000,0.500,1687.000,1.000,1078.000,5.000,0
"07/03/06","03:07:21","AMMA06",86578.000,"cc",28321.982,6.00,2832.199,1,6,0.100,47540.000,0.200,30157.000,0.300,6140.000,0.500,1632.000,1.000,1109.000,5.000,0
"07/03/06","03:07:27","AMMA06",86318.000,"cc",28302.107,6.00,2830.211,1,6,0.100,47454.000,0.200,30119.000,0.300,6104.000,0.500,1580.000,1.000,1061.000,5.000,0
"07/03/06","03:07:33","AMMA06",85989.000,"cc",28292.309,6.00,2829.231,1,6,0.100,47750.000,0.200,29373.000,0.300,6130.000,0.500,1676.000,1.000,1060.000,5.000,0
"07/03/06","03:07:39","AMMA06",87154.000,"cc",28326.533,6.00,2832.654,1,6,0.100,48033.000,0.200,30301.000,0.300,6074.000,0.500,1684.000,1.000,1062.000,5.000,0
"07/03/06","03:07:45","AMMA06",86741.000,"cc",28286.859,6.00,2828.686,1,6,0.100,47854.000,0.200,30227.000,0.300,6060.000,0.500,1572.000,1.000,1027.000,5.000,1.000
"07/03/06","03:07:51","AMMA06",86781.000,"cc",28302.232,6.00,2830.223,1,6,0.100,48057.000,0.200,30176.000,0.300,5906.000,0.500,1569.000,1.000,1072.000,5.000,1.000
"07/03/06","03:07:57","AMMA06",86437.000,"cc",28316.100,6.00,2831.610,1,6,0.100,47914.000,0.200,29910.000,0.300,5977.000,0.500,1584.000,1.000,1051.000,5.000,1.000
"07/03/06","03:08:03","AMMA06",86682.000,"cc",28359.941,6.00,2835.994,1,6,0.100,47920.000,0.200,30255.000,0.300,5874.000,0.500,1587.000,1.000,1046.000,5.000,0
"07/03/06","03:08:09","AMMA06",86858.000,"cc",28312.285,6.00,2831.229,1,6,0.100,48128.000,0.200,30177.000,0.300,5963.000,0.500,1609.000,1.000,981.000,5.000,0
"07/03/06","03:08:15","AMMA06",86189.000,"cc",28321.234,6.00,2832.124,1,6,0.100,47907.000,0.200,29704.000,0.300,5886.000,0.500,1639.000,1.000,1053.000,5.000,0
"07/03/06","03:08:21","AMMA06",86523.000,"cc",28327.508,6.00,2832.751,1,6,0.100,48214.000,0.200,29858.000,0.300,5818.000,0.500,1601.000,1.000,1032.000,5.000,0
"07/03/06","03:08:27","AMMA06",86689.000,"cc",28291.022,6.00,2829.102,1,6,0.100,48257.000,0.200,29823.000,0.300,5926.000,0.500,1674.000,1.000,1009.000,5.000,0
"07/03/06","03:08:33","AMMA06",86378.000,"cc",28311.397,6.00,2831.140,1,6,0.100,48191.000,0.200,29739.000,0.300,5791.000,0.500,1643.000,1.000,1013.000,5.000,1.000
"07/03/06","03:08:39","AMMA06",86396.000,"cc",28293.510,6.00,2829.351,1,6,0.100,48044.000,0.200,29914.000,0.300,5817.000,0.500,1573.000,1.000,1047.000,5.000,1.000
"07/03/06","03:08:45","AMMA06",85872.000,"cc",28298.758,6.00,2829.876,1,6,0.100,47808.000,0.200,29705.000,0.300,5732.000,0.500,1612.000,1.000,1015.000,5.000,0
"07/03/06","03:08:51","AMMA06",85670.000,"cc",28376.201,6.00,2837.620,1,6,0.100,47653.000,0.200,29681.000,0.300,5742.000,0.500,1613.000,1.000,981.000,5.000,0
"07/03/06","03:08:57","AMMA06",86050.000,"cc",28343.248,6.00,2834.325,1,6,0.100,47884.000,0.200,29663.000,0.300,5845.000,0.500,1631.000,1.000,1026.000,5.000,1.000
"07/03/06","03:09:03","AMMA06",86692.000,"cc",28305.365,6.00,2830.537,1,6,0.100,48132.000,0.200,29975.000,0.300,5876.000,0.500,1649.000,1.000,1060.000,5.000,0
"07/03/06","03:09:09","AMMA06",86048.000,"cc",28324.951,6.00,2832.495,1,6,0.100,47811.000,0.200,29792.000,0.300,5773.000,0.500,1655.000,1.000,1017.000,5.000,0
"07/03/06","03:09:15","AMMA06",85676.000,"cc",28291.606,6.00,2829.161,1,6,0.100,47645.000,0.200,29597.000,0.300,5779.000,0.500,1608.000,1.000,1047.000,5.000,0
"07/03/06","03:09:21","AMMA06",86103.000,"cc",28340.756,6.00,2834.076,1,6,0.100,47817.000,0.200,29787.000,0.300,5876.000,0.500,1609.000,1.000,1014.000,5.000,0
"07/03/06","03:09:27","AMMA06",85692.000,"cc",28343.393,6.00,2834.339,1,6,0.100,47753.000,0.200,29480.000,0.300,5772.000,0.500,1681.000,1.000,1006.000,5.000,0
"07/03/06","03:09:33","AMMA06",85805.000,"cc",28326.225,6.00,2832.623,1,6,0.100,47549.000,0.200,29808.000,0.300,5748.000,0.500,1641.000,1.000,1059.000,5.000,0
"07/03/06","03:09:39","AMMA06",85556.000,"cc",28283.111,6.00,2828.311,1,6,0.100,47346.000,0.200,29676.000,0.300,5886.000,0.500,1569.000,1.000,1079.000,5.000,0
"07/03/06","03:09:45","AMMA06",86000.000,"cc",28326.133,6.00,2832.614,1,6,0.100,47728.000,0.200,29613.000,0.300,6024.000,0.500,1584.000,1.000,1051.000,5.000,0
"07/03/06","03:09:51","AMMA06",86232.000,"cc",28278.256,6.00,2827.826,1,6,0.100,48111.000,0.200,29701.000,0.300,5779.000,0.500,1596.000,1.000,1043.000,5.000,2.000
"07/03/06","03:09:57","AMMA06",85923.000,"cc",28324.238,6.00,2832.424,1,6,0.100,47826.000,0.200,29677.000,0.300,5793.000,0.500,1629.000,1.000,998.000,5.000,0
"07/03/06","03:10:03","AMMA06",86272.000,"cc",28303.680,6.00,2830.368,1,6,0.100,47786.000,0.200,29865.000,0.300,5953.000,0.500,1679.000,1.000,988.000,5.000,1.000
"07/03/06","03:10:09","AMMA06",85826.000,"cc",28346.117,6.00,2834.612,1,6,0.100,47623.000,0.200,29717.000,0.300,5869.000,0.500,1608.000,1.000,1008.000,5.000,1.000
"07/03/06","03:10:15","AMMA06",86094.000,"cc",28336.129,6.00,2833.613,1,6,0.100,47639.000,0.200,29895.000,0.300,5871.000,0.500,1647.000,1.000,1042.000,5.000,0
"07/03/06","03:10:21","AMMA06",85742.000,"cc",28322.563,6.00,2832.256,1,6,0.100,47596.000,0.200,29747.000,0.300,5728.000,0.500,1610.000,1.000,1061.000,5.000,0
"07/03/06","03:10:27","AMMA06",85805.000,"cc",28273.389,6.00,2827.339,1,6,0.100,47471.000,0.200,29711.000,0.300,5928.000,0.500,1641.000,1.000,1054.000,5.000,0
"07/03/06","03:10:33","AMMA06",85701.000,"cc",28315.934,6.00,2831.594,1,6,0.100,47520.000,0.200,29736.000,0.300,5770.000,0.500,1639.000,1.000,1035.000,5.000,1.000
"07/03/06","03:10:39","AMMA06",86062.000,"cc",28335.082,6.00,2833.508,1,6,0.100,47875.000,0.200,29654.000,0.300,5858.000,0.500,1652.000,1.000,1023.000,5.000,0
"07/03/06","03:10:45","AMMA06",86056.000,"cc",28341.553,6.00,2834.156,1,6,0.100,47545.000,0.200,29870.000,0.300,6032.000,0.500,1568.000,1.000,1041.000,5.000,0
"07/03/06","03:10:51","AMMA06",86490.000,"cc",28297.217,6.00,2829.722,1,6,0.100,48096.000,0.200,29786.000,0.300,5946.000,0.500,1611.000,1.000,1051.000,5.000,0
"07/03/06","03:10:57","AMMA06",86989.000,"cc",28338.580,6.00,2833.858,1,6,0.100,48202.000,0.200,30190.000,0.300,5918.000,0.500,1630.000,1.000,1049.000,5.000,0
"07/03/06","03:11:03","AMMA06",86653.000,"cc",28349.334,6.00,2834.934,1,6,0.100,48127.000,0.200,30003.000,0.300,5981.000,0.500,1535.000,1.000,1006.000,5.000,1.000
"07/03/06","03:11:09","AMMA06",86342.000,"cc",28291.522,6.00,2829.152,1,6,0.100,48001.000,0.200,29828.000,0.300,5903.000,0.500,1563.000,1.000,1047.000,5.000,0
"07/03/06","03:11:15","AMMA06",86488.000,"cc",28292.598,6.00,2829.260,1,6,0.100,47992.000,0.200,29967.000,0.300,5840.000,0.500,1575.000,1.000,1114.000,5.000,0
"07/03/06","03:11:21","AMMA06",86528.000,"cc",28265.123,6.00,2826.513,1,6,0.100,47766.000,0.200,30210.000,0.300,5949.000,0.500,1563.000,1.000,1039.000,5.000,1.000
"07/03/06","03:11:27","AMMA06",86213.000,"cc",28322.398,6.00,2832.240,1,6,0.100,47851.000,0.200,29938.000,0.300,5739.000,0.500,1613.000,1.000,1072.000,5.000,0
"07/03/06","03:11:33","AMMA06",86573.000,"cc",28339.752,6.00,2833.975,1,6,0.100,48001.000,0.200,29990.000,0.300,5832.000,0.500,1630.000,1.000,1120.000,5.000,0
"07/03/06","03:11:39","AMMA06",86558.000,"cc",28333.123,6.00,2833.313,1,6,0.100,47809.000,0.200,30108.000,0.300,5943.000,0.500,1643.000,1.000,1055.000,5.000,0
"07/03/06","03:11:45","AMMA06",86607.000,"cc",28305.397,6.00,2830.540,1,6,0.100,47903.000,0.200,30177.000,0.300,5865.000,0.500,1608.000,1.000,1054.000,5.000,0
"07/03/06","03:11:51","AMMA06",85851.000,"cc",28367.168,6.00,2836.717,1,6,0.100,47707.000,0.200,29631.000,0.300,5824.000,0.500,1617.000,1.000,1072.000,5.000,0
"07/03/06","03:11:57","AMMA06",86027.000,"cc",28301.637,6.00,2830.164,1,6,0.100,47578.000,0.200,29891.000,0.300,5871.000,0.500,1688.000,1.000,999.000,5.000,0
"07/03/06","03:12:03","AMMA06",86226.000,"cc",28294.545,6.00,2829.455,1,6,0.100,47705.000,0.200,30016.000,0.300,5812.000,0.500,1635.000,1.000,1058.000,5.000,0
"07/03/06","03:12:09","AMMA06",86406.000,"cc",28319.889,6.00,2831.989,1,6,0.100,47872.000,0.200,30038.000,0.300,5819.000,0.500,1669.000,1.000,1008.000,5.000,0
"07/03/06","03:12:15","AMMA06",86121.000,"cc",28278.523,6.00,2827.853,1,6,0.100,47914.000,0.200,29669.000,0.300,5933.000,0.500,1588.000,1.000,1015.000,5.000,2.000
"07/03/06","03:12:21","AMMA06",86430.000,"cc",28357.104,6.00,2835.710,1,6,0.100,47879.000,0.200,30057.000,0.300,5852.000,0.500,1614.000,1.000,1028.000,5.000,0
"07/03/06","03:12:27","AMMA06",86123.000,"cc",28309.744,6.00,2830.975,1,6,0.100,47896.000,0.200,29715.000,0.300,5857.000,0.500,1595.000,1.000,1060.000,5.000,0
"07/03/06","03:12:33","AMMA06",86095.000,"cc",28267.963,6.00,2826.796,1,6,0.100,47784.000,0.200,29867.000,0.300,5829.000,0.500,1598.000,1.000,1017.000,5.000,0
"07/03/06","03:12:39","AMMA06",86417.000,"cc",28346.811,6.00,2834.681,1,6,0.100,48245.000,0.200,29771.000,0.300,5786.000,0.500,1568.000,1.000,1047.000,5.000,0
"07/03/06","03:12:45","AMMA06",85948.000,"cc",28289.918,6.00,2828.992,1,6,0.100,47906.000,0.200,29623.000,0.300,5761.000,0.500,1617.000,1.000,1041.000,5.000,0
"07/03/06","03:12:51","AMMA06",86216.000,"cc",28361.061,6.00,2836.106,1,6,0.100,47710.000,0.200,29956.000,0.300,5942.000,0.500,1601.000,1.000,1006.000,5.000,1.000
"07/03/06","03:12:57","AMMA06",86295.000,"cc",28327.547,6.00,2832.755,1,6,0.100,47695.000,0.200,29955.000,0.300,5947.000,0.500,1672.000,1.000,1025.000,5.000,1.000
"07/03/06","03:13:03","AMMA06",85895.000,"cc",28345.342,6.00,2834.534,1,6,0.100,47755.000,0.200,29652.000,0.300,5898.000,0.500,1597.000,1.000,992.000,5.000,1.000
"07/03/06","03:13:09","AMMA06",85913.000,"cc",28267.283,6.00,2826.729,1,6,0.100,47835.000,0.200,29552.000,0.300,5831.000,0.500,1627.000,1.000,1067.000,5.000,1.000
"07/03/06","03:13:15","AMMA06",86288.000,"cc",28350.729,6.00,2835.073,1,6,0.100,47780.000,0.200,30006.000,0.300,5810.000,0.500,1663.000,1.000,1029.000,5.000,0
"07/03/06","03:13:21","AMMA06",85703.000,"cc",28339.385,6.00,2833.939,1,6,0.100,47439.000,0.200,29742.000,0.300,5790.000,0.500,1705.000,1.000,1027.000,5.000,0
"07/03/06","03:13:27","AMMA06",86137.000,"cc",28334.744,6.00,2833.475,1,6,0.100,47792.000,0.200,29744.000,0.300,5950.000,0.500,1635.000,1.000,1016.000,5.000,0
"07/03/06","03:13:33","AMMA06",86156.000,"cc",28277.164,6.00,2827.717,1,6,0.100,47664.000,0.200,29904.000,0.300,5966.000,0.500,1571.000,1.000,1051.000,5.000,0
"07/03/06","03:13:39","AMMA06",86119.000,"cc",28308.238,6.00,2830.824,1,6,0.100,47554.000,0.200,29965.000,0.300,5871.000,0.500,1655.000,1.000,1074.000,5.000,0
"07/03/06","03:13:45","AMMA06",86213.000,"cc",28349.223,6.00,2834.922,1,6,0.100,47467.000,0.200,30160.000,0.300,5999.000,0.500,1614.000,1.000,973.000,5.000,0
"07/03/06","03:13:51","AMMA06",85967.000,"cc",28324.082,6.00,2832.408,1,6,0.100,47524.000,0.200,30096.000,0.300,5801.000,0.500,1546.000,1.000,1000.000,5.000,0
"07/03/06","03:13:57","AMMA06",85850.000,"cc",28306.727,6.00,2830.673,1,6,0.100,47495.000,0.200,29768.000,0.300,5934.000,0.500,1548.000,1.000,1105.000,5.000,0